This is the latest recevied weather packets stored in our database for station/object KC4JIR. If no packets are shown the sender has not sent any weather packets the latest 10 day(s).
| Time | Temp. | Humidity | Pressure | Rain* | Wind** | Luminosity | Snow |
|---|---|---|---|---|---|---|---|
| 1777552939 | 21.11° C | 88% | 1008.2 hPa | 0 mm | - | 69 W/m² | - |
| 1777552633 | 21.11° C | 88% | 1008.2 hPa | 0 mm | - | 69 W/m² | - |
| 1777552331 | 21.11° C | 88% | 1008.4 hPa | 0 mm | - | 63 W/m² | - |
| 1777552027 | 21.11° C | 88% | 1008.5 hPa | 0 mm | - | 67 W/m² | - |
| 1777551724 | 21.11° C | 88% | 1008.6 hPa | 0 mm | - | 60 W/m² | - |
| 1777551421 | 21.11° C | 89% | 1008.6 hPa | 0 mm | - | 58 W/m² | - |
| 1777551118 | 21.11° C | 90% | 1008.4 hPa | 0 mm | - | 56 W/m² | - |
| 1777550816 | 21.11° C | 90% | 1008.5 hPa | 0 mm | - | 46 W/m² | - |
| 1777550512 | 21.11° C | 90% | 1008.6 hPa | 0 mm | - | 35 W/m² | - |
| 1777550208 | 21.11° C | 90% | 1008.7 hPa | 0 mm | - | 35 W/m² | - |
| 1777549296 | 21.11° C | 92% | 1008.6 hPa | 0 mm | - | 18 W/m² | - |
| 1777548994 | 21.11° C | 92% | 1008.8 hPa | 0 mm | - | 18 W/m² | - |
| 1777548690 | 21.11° C | 93% | 1008.6 hPa | 0 mm | - | 20 W/m² | - |
| 1777548084 | 20.56° C | 96% | 1008.6 hPa | 0 mm | - | 11 W/m² | - |
| 1777547780 | 20.56° C | 96% | 1008.6 hPa | 0 mm | - | 11 W/m² | - |
| 1777547476 | 20.56° C | 97% | 1008.3 hPa | 0 mm | - | 3 W/m² | - |
| 1777547174 | 20.56° C | 97% | 1008.4 hPa | 0 mm | - | 3 W/m² | - |
| 1777546871 | 20.56° C | 97% | 1008.1 hPa | 0 mm | - | 0 W/m² | - |
| 1777546568 | 20.56° C | 97% | 1008.1 hPa | 0 mm | - | 0 W/m² | - |
| 1777546264 | 20.56° C | 97% | 1008.2 hPa | 0 mm | - | 0 W/m² | - |
| 1777545961 | 20.56° C | 97% | 1007.9 hPa | 0 mm | - | 0 W/m² | - |
| 1777545658 | 20.56° C | 97% | 1008 hPa | 0 mm | - | 0 W/m² | - |
| 1777545355 | 20.56° C | 97% | 1007.7 hPa | 0 mm | - | 0 W/m² | - |
| 1777545052 | 20° C | 98% | 1007.6 hPa | 0 mm | - | 0 W/m² | - |
| 1777544749 | 20° C | 98% | 1007.7 hPa | 0 mm | - | 0 W/m² | - |
* Rain latest hour (hover to see other rain measurements)
** Current wind speed in m/s (hover to see current wind gust speed)